Jacksonville, IL

6:04 AM CDT on October 22, 2017 (GMT -0500)
Jacksonville Municipal

Weather History for KIJX - January, 2013

Change the Weather History Date:

Wednesday, January 16, 2013

  Actual Average (KSPI) Record (KSPI)
Temperature  
Mean Temperature 30 °F -  
Max Temperature 41 °F 34 °F 67 °F (1990)
Min Temperature 19 °F 16 °F -20 °F (1977)
Degree Days  
Heating Degree Days 35    
Moisture  
Dew Point 23 °F    
Average Humidity 73    
Maximum Humidity 93    
Minimum Humidity 56    
Precipitation  
Precipitation 0.00 in - - ()
Sea Level Pressure  
Sea Level Pressure 30.08 in    
Wind  
Wind Speed 5 mph (SW)    
Max Wind Speed 20 mph    
Max Gust Speed 25 mph    
Visibility 10 miles    
Events      
Averages and records for this station are not official NWS values.
T = Trace of Precipitation, MM = Missing Value Source: NWS Daily Summary

Daily Weather History Graph

Daily Weather History Graph

Search for Another Location

Airport or City:

Trip Planner

Search our weather history database for the weather conditions in past years. The results will help you decide how hot, cold, wet, or windy it might be!

Date:

Astronomy

Jan. 16, 2013 Rise Set
Actual Time 7:19 AM CST 5:02 PM CST
Civil Twilight 6:50 AM CST 5:31 PM CST
Nautical Twilight 6:17 AM CST 6:04 PM CST
Astronomical Twilight 5:44 AM CST 6:37 PM CST
Moon 9:57 AM CST (1/16) 10:53 PM CST (1/16)
Length of Visible Light 10h 41m
Length of Day
9h 42m
Waxing Crescent, 28% of the Moon is Illuminated
Jan 16
Waxing Crescent
Jan 18
First Quarter
Jan 26
Full
Feb 3
Last Quarter
Feb 10
New

Hourly Weather History & Observations

Time (CST) Temp. Windchill Dew Point Humidity Pressure Visibility Wind Dir Wind Speed Gust Speed Precip Events Conditions
12:15 AM 23.0 °F - 20.1 °F 89% 30.15 in 10.0 mi Calm Calm - N/A   Scattered Clouds
12:35 AM 21.9 °F - 18.9 °F 88% 30.15 in 10.0 mi Calm Calm - N/A   Clear
12:55 AM 22.5 °F - 20.1 °F 91% 30.15 in 10.0 mi Calm Calm - N/A   Clear
1:15 AM 21.2 °F 16.4 °F 19.4 °F 93% 30.16 in 10.0 mi WSW 3.5 mph - N/A   Clear
1:35 AM 21.4 °F 16.6 °F 18.5 °F 89% 30.15 in 10.0 mi West 3.5 mph - N/A   Clear
1:55 AM 21.2 °F 16.4 °F 18.1 °F 88% 30.15 in 10.0 mi West 3.5 mph - N/A   Mostly Cloudy
2:15 AM 21.0 °F 16.2 °F 17.6 °F 87% 30.15 in 10.0 mi West 3.5 mph - N/A   Scattered Clouds
2:35 AM 19.9 °F - 16.3 °F 86% 30.15 in 10.0 mi Calm Calm - N/A   Clear
2:55 AM 20.7 °F - 17.1 °F 86% 30.15 in 10.0 mi Calm Calm - N/A   Clear
3:15 AM 20.8 °F - 17.6 °F 87% 30.14 in 10.0 mi Calm Calm - N/A   Clear
3:35 AM 19.9 °F - 17.1 °F 89% 30.13 in 10.0 mi Calm Calm - N/A   Clear
3:55 AM 19.4 °F - 16.3 °F 88% 30.12 in 10.0 mi Calm Calm - N/A   Clear
4:15 AM 19.0 °F 13.9 °F 16.0 °F 88% 30.12 in 10.0 mi SW 3.5 mph - N/A   Clear
4:35 AM 19.8 °F 13.2 °F 16.2 °F 86% 30.11 in 10.0 mi SW 4.6 mph - N/A   Clear
4:55 AM 19.8 °F 14.7 °F 15.8 °F 85% 30.09 in 10.0 mi SSW 3.5 mph - N/A   Clear
5:15 AM 19.4 °F 12.8 °F 15.8 °F 86% 30.08 in 10.0 mi SSW 4.6 mph - N/A   Clear
5:35 AM 19.4 °F 12.8 °F 15.8 °F 86% 30.08 in 10.0 mi SSW 4.6 mph - N/A   Clear
5:55 AM 19.9 °F 14.9 °F 16.5 °F 87% 30.08 in 10.0 mi SW 3.5 mph - N/A   Clear
6:15 AM 19.4 °F 12.8 °F 17.6 °F 93% 30.08 in 10.0 mi SW 4.6 mph - N/A   Clear
6:35 AM 20.1 °F 13.6 °F 16.3 °F 85% 30.09 in 10.0 mi SW 4.6 mph - N/A   Clear
6:55 AM 19.9 °F 13.4 °F 16.2 °F 85% 30.10 in 10.0 mi SW 4.6 mph - N/A   Clear
7:15 AM 21.2 °F 13.6 °F 16.5 °F 82% 30.10 in 10.0 mi SSW 5.8 mph - N/A   Clear
7:35 AM 21.0 °F 13.4 °F 16.5 °F 83% 30.09 in 10.0 mi SSW 5.8 mph - N/A   Clear
7:55 AM 22.3 °F 13.0 °F 17.4 °F 82% 30.09 in 10.0 mi SSW 8.1 mph - N/A   Clear
8:15 AM 23.9 °F 15.0 °F 18.0 °F 78% 30.09 in 10.0 mi South 8.1 mph - N/A   Clear
8:35 AM 25.3 °F 16.0 °F 18.3 °F 75% 30.09 in 10.0 mi South 9.2 mph - N/A   Clear
8:55 AM 26.8 °F 17.7 °F 19.0 °F 73% 30.09 in 10.0 mi SSW 9.2 mph - N/A   Clear
9:15 AM 28.0 °F 19.3 °F 20.1 °F 72% 30.09 in 10.0 mi SSW 9.2 mph - N/A   Clear
9:35 AM 29.1 °F 21.3 °F 21.0 °F 72% 30.08 in 10.0 mi SSW 8.1 mph - N/A   Clear
9:55 AM 30.0 °F 20.5 °F 21.0 °F 69% 30.07 in 10.0 mi SW 11.5 mph - N/A   Clear
10:15 AM 31.5 °F 22.9 °F 21.7 °F 67% 30.07 in 10.0 mi SW 10.4 mph 17.3 mph N/A   Clear
10:35 AM 32.2 °F 22.7 °F 22.3 °F 67% 30.07 in 10.0 mi SW 12.7 mph - N/A   Clear
10:55 AM 32.9 °F 24.1 °F 23.0 °F 67% 30.07 in 10.0 mi SW 11.5 mph - N/A   Clear
11:15 AM 33.8 °F 24.3 °F 23.5 °F 66% 30.06 in 10.0 mi SW 13.8 mph 18.4 mph N/A   Clear
11:35 AM 34.2 °F 24.0 °F 24.4 °F 68% 30.05 in 10.0 mi SW 16.1 mph - N/A   Clear
11:55 AM 35.2 °F 26.6 °F 25.9 °F 69% 30.04 in 10.0 mi SW 12.7 mph 19.6 mph N/A   Clear
12:15 PM 36.0 °F 26.7 °F 25.9 °F 67% 30.02 in 10.0 mi SW 15.0 mph 21.9 mph N/A   Clear
12:35 PM 37.4 °F 28.2 °F 26.1 °F 64% 30.02 in 10.0 mi SW 16.1 mph - N/A   Clear
12:55 PM 37.4 °F 28.5 °F 25.5 °F 62% 30.02 in 10.0 mi SW 15.0 mph - N/A   Clear
1:15 PM 37.9 °F 29.2 °F 25.9 °F 62% 29.99 in 10.0 mi SW 15.0 mph 25.3 mph N/A   Clear
1:35 PM 39.2 °F 29.6 °F 26.6 °F 61% 29.99 in 10.0 mi SW 19.6 mph 23.0 mph N/A   Clear
1:55 PM 39.2 °F 30.5 °F 26.6 °F 61% 29.98 in 10.0 mi SW 16.1 mph 23.0 mph N/A   Clear
2:15 PM 39.6 °F 31.7 °F 27.7 °F 62% 29.99 in 10.0 mi SW 13.8 mph - N/A   Clear
2:35 PM 39.2 °F 30.2 °F 28.4 °F 65% 29.99 in 10.0 mi SW 17.3 mph - N/A   Clear
2:55 PM 40.6 °F 32.3 °F 26.8 °F 58% 29.99 in 10.0 mi SW 16.1 mph - N/A   Clear
3:15 PM 41.0 °F 33.1 °F 27.0 °F 57% 29.99 in 10.0 mi SW 15.0 mph 19.6 mph N/A   Clear
3:35 PM 41.0 °F 33.5 °F 26.8 °F 57% 29.99 in 10.0 mi SW 13.8 mph - N/A   Clear
3:55 PM 41.0 °F 33.9 °F 27.0 °F 57% 30.00 in 10.0 mi SW 12.7 mph - N/A   Clear
4:15 PM 40.5 °F 33.2 °F 25.9 °F 56% 30.01 in 10.0 mi WSW 12.7 mph 17.3 mph N/A   Clear
4:35 PM 39.7 °F 32.7 °F 26.1 °F 58% 30.02 in 10.0 mi WSW 11.5 mph 18.4 mph N/A   Scattered Clouds
4:55 PM 39.2 °F 35.0 °F 25.9 °F 59% 30.02 in 10.0 mi West 5.8 mph - N/A   Mostly Cloudy
5:15 PM 39.0 °F 33.4 °F 26.1 °F 60% 30.03 in 10.0 mi WSW 8.1 mph - N/A   Overcast
5:35 PM 38.3 °F 30.9 °F 26.4 °F 62% 30.03 in 10.0 mi WSW 11.5 mph - N/A   Mostly Cloudy
5:55 PM 38.8 °F 31.6 °F 26.4 °F 61% 30.05 in 10.0 mi WSW 11.5 mph - N/A   Mostly Cloudy
6:15 PM 38.8 °F 35.4 °F 26.4 °F 61% 30.06 in 10.0 mi WSW 4.6 mph - N/A   Overcast
6:35 PM 38.1 °F 32.3 °F 26.6 °F 63% 30.06 in 10.0 mi WSW 8.1 mph - N/A   Scattered Clouds
6:55 PM 37.4 °F - 27.0 °F 66% 30.08 in 10.0 mi Calm Calm - N/A   Clear
7:15 PM 37.4 °F 31.4 °F 26.6 °F 65% 30.08 in 10.0 mi WSW 8.1 mph - N/A   Clear
7:35 PM 37.4 °F 32.8 °F 26.6 °F 65% 30.09 in 10.0 mi WSW 5.8 mph - N/A   Clear
7:55 PM 37.8 °F - 26.4 °F 64% 30.09 in 10.0 mi Calm Calm - N/A   Mostly Cloudy
8:15 PM 36.9 °F - 26.2 °F 65% 30.08 in 10.0 mi Calm Calm - N/A   Scattered Clouds
8:35 PM 35.6 °F - 26.6 °F 70% 30.09 in 10.0 mi Calm Calm - N/A   Mostly Cloudy
8:55 PM 36.0 °F - 26.4 °F 68% 30.09 in 10.0 mi Calm Calm - N/A   Scattered Clouds
9:15 PM 35.6 °F - 26.4 °F 69% 30.09 in 10.0 mi Calm Calm - N/A   Scattered Clouds
9:35 PM 35.6 °F - 26.4 °F 69% 30.08 in 10.0 mi Calm Calm - N/A   Mostly Cloudy
9:55 PM 34.9 °F - 27.5 °F 74% 30.09 in 10.0 mi Calm Calm - N/A   Overcast
10:15 PM 36.0 °F - 27.3 °F 71% 30.09 in 10.0 mi Calm Calm - N/A   Overcast
10:35 PM 36.3 °F - 27.5 °F 70% 30.09 in 10.0 mi Calm Calm - N/A   Overcast
10:55 PM 36.5 °F - 27.9 °F 71% 30.10 in 10.0 mi Calm Calm - N/A   Overcast
11:15 PM 36.1 °F - 28.4 °F 73% 30.10 in 10.0 mi Calm Calm - N/A   Overcast
11:35 PM 36.1 °F - 28.4 °F 73% 30.10 in 10.0 mi Calm Calm - N/A   Overcast
11:55 PM 36.0 °F - 28.8 °F 75% 30.11 in 10.0 mi Calm Calm - N/A   Overcast